Wind_Speed
38 38 39 39 40 39 38 38 37 35 34 33 32 32 31 32 31 31 30 30 28 26 25 24 24 23 22 23 24 24 24 24 25 25 24 23 22 20 19 18 19 18 17
38 38 39 40 41 41 42 42 41 39 37 35 34 34 34 33 33 32 32 32 29 27 25 26 25 24 23 24 25 25 25 26 26 26 26 25 24 24 22 20 20 20 20
38 38 39 40 40 40 41 42 42 41 40 38 37 36 35 35 34 33 33 33 31 29 28 27 27 26 26 25 24 25 26 27 27 28 28 28 26 26 25 24 22 21 22
36 36 37 38 39 40 41 41 42 41 40 40 39 38 36 35 35 35 35 33 32 32 30 28 28 28 28 26 26 26 26 28 28 29 29 30 29 27 26 26 25 24 23
36 35 34 34 35 36 37 38 38 39 39 40 39 38 37 36 36 36 36 35 34 33 32 31 29 29 29 27 27 27 26 27 28 29 30 31 30 29 28 27 27 26 25
33 32 30 31 32 32 33 34 35 36 37 38 38 38 38 37 36 36 36 35 34 34 33 32 31 30 29 28 28 29 29 28 28 28 29 31 30 29 29 28 28 26 25
28 27 26 26 27 28 29 31 32 34 35 35 36 36 37 36 36 36 36 35 34 33 32 32 31 31 30 30 29 28 29 29 28 28 29 30 30 30 29 28 28 26 25
22 23 22 21 22 24 26 27 29 30 31 32 33 34 34 34 34 34 33 33 32 32 32 32 31 30 30 30 30 29 28 28 28 28 28 28 28 28 28 28 27 26 25
18 18 17 16 16 17 19 22 24 24 25 27 28 30 30 30 31 31 31 31 31 31 30 31 30 30 30 29 29 28 28 28 28 27 28 27 27 27 27 27 26 24 23
13 12 11 11 12 13 14 16 18 20 21 22 23 23 25 26 26 26 26 28 28 28 27 27 28 27 27 27 27 27 27 26 26 26 26 26 26 27 26 25 24 22 23
10 10 10 10 10 10 11 11 12 13 14 15 16 17 18 20 21 22 22 22 23 23 24 24 24 23 22 22 22 23 23 23 24 25 25 24 23 23 22 22 22 23 23
13 12 11 9 8 6 5 5 5 6 7 8 10 11 12 13 14 15 15 16 17 18 19 18 18 18 18 18 18 17 18 19 20 21 21 21 21 21 21 21 22 23 23
17 15 14 13 10 8 7 6 5 4 4 5 5 6 6 7 7 8 9 9 10 10 11 13 14 15 16 16 16 16 17 17 18 19 20 20 20 21 20 21 21 22 23
18 17 16 15 14 11 10 9 7 7 6 6 6 5 4 3 4 5 5 6 7 7 9 11 12 13 14 14 14 14 15 16 17 18 18 18 19 19 20 20 21 21 21
17 16 15 15 15 14 13 12 11 9 9 8 8 8 7 6 5 4 3 4 5 6 8 9 10 11 11 12 13 14 15 16 16 17 18 18 19 19 19 20 21 21 21
18 18 17 17 16 15 15 14 13 12 11 9 8 8 7 6 5 5 5 5 6 7 8 9 10 12 13 14 15 15 16 17 17 18 19 19 19 19 20 20 21 21 21
19 19 18 18 18 17 17 16 15 14 13 12 11 10 9 7 7 7 7 6 6 7 9 10 11 12 13 15 16 17 17 17 17 18 19 20 20 20 20 21 21 21 22
19 18 18 18 18 17 17 16 16 16 15 15 14 13 12 11 9 8 8 8 8 8 9 10 11 12 14 15 16 17 17 17 18 18 19 19 19 19 20 20 20 20 20
19 19 19 19 19 19 19 18 18 17 17 16 16 15 14 13 12 10 10 9 9 10 10 11 11 12 13 14 15 16 16 17 17 18 18 18 18 18 18 19 19 19 19
20 20 20 20 20 20 20 20 19 19 18 18 17 16 16 15 14 13 12 11 11 11 11 11 12 12 12 12 13 14 15 15 16 16 17 18 18 17 17 17 17 17 17
20 20 21 21 21 20 20 20 20 20 20 19 18 18 17 16 16 15 14 13 12 12 12 12 12 12 11 10 10 10 11 12 12 13 14 15 16 16 16 16 16 16 16
19 19 20 20 20 20 20 20 20 20 20 20 19 18 18 18 17 17 16 15 14 14 13 13 12 11 9 8 7 7 7 8 9 10 11 12 13 14 14 14 14 14 15
17 18 18 18 19 19 20 20 20 20 20 20 19 19 19 19 19 18 18 17 16 16 15 14 13 12 10 8 6 4 4 5 5 6 7 7 8 9 10 11 11 11 12
15 15 16 16 17 18 19 19 20 20 21 20 20 20 19 19 19 19 19 18 18 17 17 16 15 14 13 10 8 5 3 2 2 2 3 3 4 5 6 7 8 8 9
13 13 14 15 16 16 17 18 19 19 20 20 20 20 21 20 20 19 19 19 18 18 18 18 17 16 15 14 12 10 8 6 4 3 2 1 1 1 2 3 4 5 5
11 12 12 13 14 15 16 16 17 18 19 19 20 20 20 21 21 20 20 19 19 18 18 18 18 18 17 16 15 14 12 10 9 8 7 6 4 3 2 2 1 1 2
Wind_Direction
273 271 268 268 267 267 266 266 266 265 266 266 267 267 268 268 270 272 273 272 269 267 266 267 267 267 266 265 265 264 263 264 264 264 262 261 261 260 262 266 269 273 276
274 272 270 268 266 265 264 264 264 264 264 265 265 266 267 267 269 271 271 271 270 266 266 266 267 268 269 268 265 263 264 264 263 260 258 257 259 260 261 261 264 270 273
275 273 272 269 266 264 263 262 262 263 263 263 264 264 264 266 266 268 268 268 269 267 269 267 267 268 268 270 268 264 265 265 263 259 256 254 257 260 261 262 262 265 269
275 273 271 269 266 264 262 260 260 261 262 262 262 262 262 264 264 266 266 267 268 267 267 265 266 266 267 267 267 267 269 266 261 259 255 252 255 257 258 261 263 263 265
276 274 273 271 268 264 260 258 258 259 261 261 261 261 261 262 264 265 266 268 268 268 269 266 266 267 266 265 268 266 268 266 262 257 253 250 251 253 254 258 260 262 263
281 278 276 273 267 264 261 259 258 258 258 260 261 262 262 262 263 264 265 266 267 268 270 270 269 272 269 268 268 266 267 264 261 255 251 249 248 249 251 255 258 259 260
285 280 279 275 270 267 263 260 259 260 260 260 261 262 262 262 263 263 265 266 267 268 270 270 271 271 268 268 266 267 265 261 257 252 249 248 246 246 249 252 253 254 256
286 284 283 280 273 268 266 264 263 264 264 262 262 263 263 263 263 264 266 267 267 268 268 268 269 269 266 266 264 264 261 258 254 251 248 245 245 247 248 249 249 251 254
300 297 292 290 282 274 271 268 266 267 267 266 265 265 265 265 266 266 266 266 266 267 267 265 266 264 265 265 264 261 257 254 253 250 245 244 247 248 248 249 248 251 255
321 314 308 306 296 286 282 275 269 269 269 268 266 266 266 265 266 266 266 265 264 262 264 265 261 260 262 262 262 257 255 253 250 247 248 247 247 246 247 248 248 251 254
359 345 334 326 316 307 297 288 281 277 273 271 268 266 265 263 263 264 265 264 262 262 263 263 262 260 259 258 258 256 252 251 248 247 246 244 245 246 247 247 250 252 254
22 16 7 358 350 345 336 322 313 297 288 284 277 276 274 265 263 263 265 266 262 259 257 256 257 255 254 253 252 247 248 247 247 247 245 244 246 248 248 250 252 253 255
38 39 38 36 35 37 35 25 15 0 338 312 300 293 287 270 263 267 268 268 264 260 257 256 252 249 248 249 247 246 247 246 248 249 248 249 248 248 250 252 254 255 256
44 45 45 42 43 45 46 42 37 32 27 25 22 10 352 322 292 282 275 268 268 263 254 250 249 250 252 250 248 249 250 251 253 252 252 252 250 250 252 254 255 256 257
42 42 42 41 40 42 43 43 43 42 40 38 32 25 21 18 9 348 313 293 279 271 266 261 261 260 258 259 257 257 257 257 256 255 254 253 253 253 254 256 258 259 260
46 46 46 45 45 44 45 45 44 42 39 33 25 19 15 8 2 350 337 317 300 289 282 278 275 270 266 266 264 263 260 260 258 256 255 256 256 255 256 258 260 262 263
46 47 47 47 47 47 46 44 42 39 37 34 30 25 20 13 4 354 348 337 322 308 298 292 285 278 273 270 268 265 263 261 259 256 256 256 256 256 258 261 263 264 264
47 46 46 47 47 46 45 45 43 42 40 38 35 31 25 20 13 5 356 346 335 324 315 306 298 290 281 275 271 267 265 262 261 259 258 257 257 257 260 260 262 264 265
48 48 49 49 49 48 47 47 46 44 42 39 36 33 30 26 22 14 4 354 346 336 326 317 309 300 290 281 274 269 265 263 262 260 258 256 257 257 258 260 262 263 264
50 50 50 50 48 48 47 47 45 43 42 39 36 34 31 28 24 18 11 4 357 349 339 330 322 312 301 291 282 275 270 266 263 260 258 256 256 256 258 261 265 266 265
52 52 51 50 49 48 47 45 43 41 40 38 36 34 32 29 25 22 18 13 8 2 354 344 337 328 316 303 293 282 272 265 261 259 259 258 256 256 258 261 265 266 266
51 51 50 49 47 46 44 43 40 39 38 37 36 34 33 30 28 25 22 19 15 12 8 2 357 352 342 327 309 294 280 270 264 262 261 259 256 255 258 260 262 263 264
48 48 47 46 44 42 41 39 38 37 37 36 35 33 33 31 30 28 26 25 22 20 18 17 15 12 9 3 350 327 299 282 272 266 263 259 255 255 257 259 261 263 264
43 43 42 41 39 38 37 36 36 36 36 35 33 32 32 31 30 29 29 29 29 28 27 27 27 27 27 26 24 20 10 342 312 290 274 266 261 263 265 264 263 264 266
37 36 36 35 35 34 34 34 33 33 33 33 33 32 32 32 31 30 31 32 32 32 32 33 33 34 35 38 40 42 44 45 48 49 46 28 335 292 277 270 267 269 269
30 30 28 28 29 30 30 30 31 31 31 31 32 31 31 31 32 33 33 33 33 33 34 37 39 40 42 44 46 49 52 54 58 61 63 65 66 62 50 31 356 328 312
Height
5867 5866 5866 5866 5865 5865 5865 5866 5867 5868 5869 5870 5870 5871 5872 5871 5872 5872 5871 5870 5870 5870 5870 5870 5871 5871 5871 5871 5872 5872 5873 5873 5874 5874 5874 5875 5876 5878 5878 5878 5877 5877 5878
5857 5856 5855 5855 5855 5855 5855 5855 5856 5858 5859 5860 5861 5862 5863 5863 5863 5864 5863 5862 5862 5864 5864 5864 5864 5865 5865 5865 5865 5866 5866 5867 5867 5868 5868 5869 5871 5872 5873 5874 5874 5873 5873
5846 5845 5845 5844 5844 5845 5845 5845 5846 5847 5849 5850 5851 5852 5853 5854 5855 5855 5855 5854 5854 5855 5856 5857 5857 5857 5858 5858 5858 5859 5859 5860 5861 5861 5862 5863 5864 5866 5867 5868 5869 5869 5869
5835 5835 5834 5834 5833 5834 5834 5835 5836 5837 5838 5840 5841 5842 5844 5845 5846 5846 5846 5846 5846 5847 5847 5848 5848 5849 5850 5850 5851 5851 5852 5852 5853 5854 5855 5857 5858 5859 5860 5862 5862 5863 5864
5825 5824 5824 5823 5823 5823 5824 5825 5826 5827 5828 5830 5831 5833 5834 5836 5837 5837 5837 5837 5838 5839 5839 5839 5840 5841 5841 5842 5843 5843 5844 5845 5846 5846 5848 5849 5851 5852 5854 5855 5856 5857 5857
5816 5814 5814 5813 5814 5814 5815 5816 5817 5818 5819 5821 5822 5823 5825 5826 5827 5828 5829 5829 5830 5831 5830 5830 5831 5832 5833 5834 5835 5835 5836 5837 5838 5839 5840 5842 5844 5846 5847 5849 5849 5850 5851
5808 5807 5806 5805 5805 5805 5806 5807 5809 5810 5811 5812 5813 5814 5815 5817 5818 5819 5820 5821 5822 5822 5822 5823 5823 5823 5823 5825 5826 5827 5828 5829 5830 5831 5832 5834 5836 5838 5840 5842 5842 5844 5845
5802 5800 5799 5798 5797 5798 5798 5800 5801 5802 5803 5804 5805 5806 5807 5808 5809 5810 5811 5812 5813 5814 5815 5815 5815 5815 5816 5817 5819 5819 5820 5821 5822 5824 5825 5826 5829 5831 5833 5835 5836 5837 5838
5797 5796 5794 5793 5792 5792 5793 5793 5794 5795 5796 5797 5797 5798 5799 5800 5801 5802 5803 5804 5805 5806 5807 5807 5808 5808 5809 5810 5810 5811 5813 5814 5815 5817 5818 5820 5822 5824 5826 5828 5829 5831 5832
5795 5793 5791 5790 5789 5789 5789 5789 5789 5790 5790 5791 5791 5792 5793 5793 5794 5795 5796 5797 5797 5798 5799 5799 5800 5801 5801 5802 5803 5803 5805 5806 5808 5810 5811 5813 5815 5817 5819 5821 5822 5824 5826
5795 5792 5790 5789 5787 5786 5786 5786 5786 5786 5786 5786 5786 5787 5787 5788 5788 5789 5789 5790 5791 5791 5792 5793 5793 5794 5795 5795 5796 5797 5799 5800 5802 5803 5805 5807 5809 5811 5813 5814 5816 5818 5820
5796 5793 5791 5789 5787 5786 5785 5785 5784 5784 5784 5784 5784 5784 5784 5784 5784 5784 5784 5785 5785 5786 5786 5787 5788 5788 5789 5790 5791 5792 5793 5795 5796 5798 5799 5801 5803 5805 5807 5808 5810 5812 5813
5799 5796 5794 5791 5789 5788 5787 5786 5785 5784 5784 5783 5782 5782 5782 5781 5781 5781 5781 5782 5782 5782 5782 5783 5784 5784 5785 5786 5786 5788 5789 5790 5791 5793 5794 5796 5797 5799 5801 5802 5804 5805 5806
5803 5800 5797 5795 5793 5791 5789 5788 5787 5786 5785 5784 5783 5782 5781 5781 5780 5780 5780 5780 5780 5780 5780 5780 5780 5781 5781 5782 5783 5784 5785 5786 5787 5788 5789 5790 5792 5793 5795 5796 5798 5799 5800
5807 5804 5801 5799 5796 5794 5792 5790 5789 5787 5787 5785 5784 5783 5782 5781 5780 5779 5779 5779 5778 5778 5778 5778 5778 5778 5778 5778 5779 5780 5780 5781 5782 5783 5784 5785 5786 5788 5789 5790 5791 5792 5793
5811 5808 5805 5802 5800 5797 5795 5793 5791 5790 5789 5787 5786 5784 5783 5782 5781 5780 5779 5778 5777 5777 5776 5776 5775 5775 5775 5775 5775 5775 5776 5777 5778 5779 5779 5780 5781 5782 5783 5785 5786 5786 5787
5815 5812 5809 5806 5804 5801 5799 5796 5794 5792 5791 5789 5787 5785 5784 5782 5780 5779 5778 5777 5776 5775 5774 5773 5772 5772 5771 5771 5771 5771 5772 5772 5773 5773 5774 5774 5776 5777 5778 5779 5780 5780 5781
5818 5815 5812 5810 5807 5805 5802 5800 5797 5795 5793 5791 5789 5787 5785 5783 5781 5779 5778 5776 5775 5773 5772 5771 5769 5768 5767 5767 5766 5766 5767 5767 5768 5768 5769 5770 5770 5771 5772 5773 5774 5775 5775
5822 5819 5816 5814 5811 5808 5806 5803 5801 5798 5796 5793 5791 5789 5786 5784 5782 5780 5778 5776 5774 5772 5770 5768 5766 5765 5763 5762 5761 5761 5762 5762 5763 5763 5764 5764 5765 5766 5767 5768 5769 5770 5770
5826 5823 5820 5817 5815 5812 5809 5807 5804 5801 5799 5796 5793 5791 5788 5785 5783 5781 5778 5776 5774 5771 5769 5766 5764 5762 5760 5758 5757 5757 5757 5757 5758 5758 5759 5760 5761 5762 5762 5763 5764 5764 5765
5830 5827 5824 5822 5819 5816 5813 5811 5808 5805 5802 5799 5796 5793 5790 5787 5784 5781 5779 5776 5773 5771 5768 5765 5762 5759 5757 5755 5754 5753 5753 5753 5754 5754 5755 5755 5756 5757 5758 5758 5759 5759 5760
5834 5831 5828 5826 5823 5821 5818 5815 5811 5808 5805 5802 5799 5795 5792 5789 5786 5783 5780 5777 5773 5770 5767 5764 5761 5758 5755 5753 5751 5750 5750 5750 5750 5751 5751 5751 5752 5753 5754 5754 5755 5755 5756
5837 5835 5832 5830 5827 5824 5821 5818 5815 5812 5808 5805 5802 5798 5795 5792 5788 5785 5781 5778 5775 5771 5768 5765 5761 5758 5755 5752 5750 5749 5749 5748 5748 5748 5748 5749 5749 5749 5750 5751 5751 5752 5752
5840 5838 5836 5833 5831 5828 5825 5822 5818 5815 5811 5808 5805 5801 5798 5794 5791 5787 5784 5780 5777 5773 5770 5766 5763 5759 5756 5753 5751 5749 5748 5748 5748 5747 5747 5747 5747 5748 5748 5748 5749 5749 5749
5843 5841 5838 5836 5833 5831 5828 5825 5822 5818 5815 5811 5808 5804 5801 5797 5794 5790 5786 5783 5779 5776 5772 5769 5765 5762 5758 5755 5753 5751 5749 5749 5748 5748 5748 5747 5747 5747 5747 5747 5747 5747 5747
5845 5843 5840 5838 5836 5833 5830 5827 5824 5821 5818 5814 5811 5808 5804 5800 5797 5793 5789 5786 5782 5779 5775 5772 5768 5765 5762 5759 5756 5754 5752 5751 5750 5749 5749 5748 5748 5747 5747 5746 5746 5746 5746